Time,TemperatureF,DewpointF,PressureIn,WindDirection,WindDirectionDegrees,WindSpeedMPH,WindSpeedGustMPH,Humidity,HourlyPrecipIn,Conditions,Clouds,dailyrainin,SolarRadiationWatts/m^2,SoftwareType,DateUTC
2013-01-14 00:06:00,42.0,16.0,30.23,North,5,0.0,6.0,35,0.00,,,0.00,0,weatherlink.com 1.10,2013-01-14 08:06:00,
2013-01-14 00:21:00,42.0,16.0,30.23,NNE,28,1.0,5.0,35,0.00,,,0.00,0,weatherlink.com 1.10,2013-01-14 08:21:00,
2013-01-14 00:36:00,41.8,16.0,30.23,North,5,4.0,8.0,35,0.00,,,0.00,0,weatherlink.com 1.10,2013-01-14 08:36:00,
2013-01-14 00:51:00,41.9,16.0,30.24,NNW,344,4.0,7.0,35,0.00,,,0.00,0,weatherlink.com 1.10,2013-01-14 08:51:00,
2013-01-14 01:06:00,41.8,16.0,30.25,North,5,2.0,6.0,35,0.00,,,0.00,0,weatherlink.com 1.10,2013-01-14 09:06:00,
2013-01-14 01:21:00,41.4,16.0,30.25,North,360,1.0,4.0,36,0.00,,,0.00,0,weatherlink.com 1.10,2013-01-14 09:21:00,
2013-01-14 01:36:00,41.0,16.0,30.26,North,10,0.0,4.0,37,0.00,,,0.00,0,weatherlink.com 1.10,2013-01-14 09:36:00,
2013-01-14 01:51:00,40.6,16.0,30.25,NNE,13,0.0,3.0,37,0.00,,,0.00,0,weatherlink.com 1.10,2013-01-14 09:51:00,
2013-01-14 02:06:00,40.1,16.0,30.27,North,5,0.0,3.0,38,0.00,,,0.00,0,weatherlink.com 1.10,2013-01-14 10:06:00,
2013-01-14 02:21:00,39.7,16.0,30.27,North,360,0.0,3.0,38,0.00,,,0.00,0,weatherlink.com 1.10,2013-01-14 10:21:00,
2013-01-14 02:36:00,39.8,17.0,30.27,NNE,14,0.0,3.0,39,0.00,,,0.00,0,weatherlink.com 1.10,2013-01-14 10:36:00,
2013-01-14 02:51:00,39.9,17.0,30.28,North,350,0.0,6.0,39,0.00,,,0.00,0,weatherlink.com 1.10,2013-01-14 10:51:00,
2013-01-14 03:06:00,39.3,18.0,30.28,NNE,16,0.0,2.0,42,0.00,,,0.00,0,weatherlink.com 1.10,2013-01-14 11:06:00,
2013-01-14 03:21:00,38.6,18.0,30.29,NNE,12,0.0,1.0,44,0.00,,,0.00,0,weatherlink.com 1.10,2013-01-14 11:21:00,
2013-01-14 03:36:00,37.7,18.0,30.29,ENE,59,0.0,1.0,46,0.00,,,0.00,0,weatherlink.com 1.10,2013-01-14 11:36:00,
2013-01-14 03:51:00,36.9,19.0,30.29,NE,53,0.0,1.0,48,0.00,,,0.00,0,weatherlink.com 1.10,2013-01-14 11:51:00,
2013-01-14 04:06:00,36.4,18.0,30.28,NE,46,0.0,1.0,48,0.00,,,0.00,0,weatherlink.com 1.10,2013-01-14 12:06:00,
2013-01-14 04:21:00,36.5,18.0,30.27,South,173,0.0,1.0,47,0.00,,,0.00,0,weatherlink.com 1.10,2013-01-14 12:21:00,
2013-01-14 04:36:00,36.9,17.0,30.28,NE,53,0.0,2.0,45,0.00,,,0.00,0,weatherlink.com 1.10,2013-01-14 12:36:00,
2013-01-14 04:51:00,36.6,17.0,30.29,SSE,154,0.0,2.0,45,0.00,,,0.00,0,weatherlink.com 1.10,2013-01-14 12:51:00,
2013-01-14 05:06:00,36.3,17.0,30.29,SSE,149,0.0,1.0,46,0.00,,,0.00,0,weatherlink.com 1.10,2013-01-14 13:06:00,
2013-01-14 05:21:00,36.4,17.0,30.30,SSE,161,0.0,1.0,45,0.00,,,0.00,0,weatherlink.com 1.10,2013-01-14 13:21:00,
2013-01-14 05:36:00,36.3,17.0,30.30,SE,125,1.0,1.0,45,0.00,,,0.00,0,weatherlink.com 1.10,2013-01-14 13:36:00,
2013-01-14 05:51:00,36.4,17.0,30.31,SE,146,0.0,2.0,45,0.00,,,0.00,0,weatherlink.com 1.10,2013-01-14 13:51:00,
2013-01-14 06:06:00,36.5,18.0,30.32,ESE,120,0.0,2.0,47,0.00,,,0.00,0,weatherlink.com 1.10,2013-01-14 14:06:00,
2013-01-14 06:21:00,36.1,17.0,30.33,SE,140,0.0,2.0,47,0.00,,,0.00,0,weatherlink.com 1.10,2013-01-14 14:21:00,
2013-01-14 06:36:00,35.9,18.0,30.34,SE,145,0.0,1.0,48,0.00,,,0.00,0,weatherlink.com 1.10,2013-01-14 14:36:00,
2013-01-14 06:51:00,35.6,18.0,30.35,SE,142,0.0,1.0,48,0.00,,,0.00,0,weatherlink.com 1.10,2013-01-14 14:51:00,
2013-01-14 07:07:00,35.5,17.0,30.35,SE,142,0.0,1.0,48,0.00,,,0.00,0,weatherlink.com 1.10,2013-01-14 15:07:00,
2013-01-14 07:22:00,35.5,17.0,30.36,ESE,104,0.0,2.0,48,0.00,,,0.00,0,weatherlink.com 1.10,2013-01-14 15:22:00,
2013-01-14 07:37:00,36.0,17.0,30.36,ESE,121,0.0,2.0,47,0.00,,,0.00,9,weatherlink.com 1.10,2013-01-14 15:37:00,
2013-01-14 07:52:00,36.0,18.0,30.36,SE,129,0.0,2.0,48,0.00,,,0.00,14,weatherlink.com 1.10,2013-01-14 15:52:00,
2013-01-14 08:07:00,36.2,18.0,30.37,SSE,149,0.0,2.0,47,0.00,,,0.00,62,weatherlink.com 1.10,2013-01-14 16:07:00,
2013-01-14 08:22:00,39.4,20.0,30.38,SE,130,1.0,1.0,45,0.00,,,0.00,114,weatherlink.com 1.10,2013-01-14 16:22:00,
2013-01-14 08:37:00,41.8,20.0,30.38,East,101,0.0,3.0,41,0.00,,,0.00,169,weatherlink.com 1.10,2013-01-14 16:37:00,
2013-01-14 08:52:00,43.3,20.0,30.39,SW,236,2.0,3.0,39,0.00,,,0.00,225,weatherlink.com 1.10,2013-01-14 16:52:00,
2013-01-14 09:07:00,45.2,20.0,30.39,SE,138,0.0,2.0,37,0.00,,,0.00,274,weatherlink.com 1.10,2013-01-14 17:07:00,
2013-01-14 09:22:00,46.3,21.0,30.39,SSE,161,0.0,4.0,36,0.00,,,0.00,315,weatherlink.com 1.10,2013-01-14 17:22:00,
2013-01-14 09:37:00,46.7,21.0,30.40,SSE,152,0.0,4.0,36,0.00,,,0.00,353,weatherlink.com 1.10,2013-01-14 17:37:00,
2013-01-14 09:52:00,47.4,19.0,30.40,SSE,148,3.0,4.0,33,0.00,,,0.00,390,weatherlink.com 1.10,2013-01-14 17:52:00,
2013-01-14 10:07:00,47.8,20.0,30.40,SE,131,4.0,6.0,33,0.00,,,0.00,424,weatherlink.com 1.10,2013-01-14 18:07:00,
2013-01-14 10:22:00,47.5,20.0,30.41,SSE,159,1.0,5.0,34,0.00,,,0.00,454,weatherlink.com 1.10,2013-01-14 18:22:00,
2013-01-14 10:37:00,48.8,21.0,30.41,ESE,123,1.0,5.0,33,0.00,,,0.00,478,weatherlink.com 1.10,2013-01-14 18:37:00,
2013-01-14 10:52:00,50.7,21.0,30.40,NNW,336,1.0,7.0,31,0.00,,,0.00,508,weatherlink.com 1.10,2013-01-14 18:52:00,
2013-01-14 11:08:00,50.8,20.0,30.40,South,173,1.0,4.0,30,0.00,,,0.00,529,weatherlink.com 1.10,2013-01-14 19:08:00,
2013-01-14 11:23:00,49.9,20.0,30.39,NE,36,1.0,6.0,31,0.00,,,0.00,543,weatherlink.com 1.10,2013-01-14 19:23:00,
2013-01-14 11:38:00,50.3,20.0,30.38,North,5,2.0,10.0,30,0.00,,,0.00,554,weatherlink.com 1.10,2013-01-14 19:38:00,
2013-01-14 11:53:00,50.1,19.0,30.37,NNW,336,2.0,6.0,29,0.00,,,0.00,570,weatherlink.com 1.10,2013-01-14 19:53:00,
2013-01-14 12:08:00,50.3,19.0,30.36,NNW,347,0.0,8.0,29,0.00,,,0.00,575,weatherlink.com 1.10,2013-01-14 20:08:00,
2013-01-14 12:23:00,51.1,20.0,30.35,West,279,3.0,6.0,29,0.00,,,0.00,575,weatherlink.com 1.10,2013-01-14 20:23:00,
2013-01-14 12:38:00,52.0,20.0,30.35,SSE,148,0.0,5.0,29,0.00,,,0.00,575,weatherlink.com 1.10,2013-01-14 20:38:00,
2013-01-14 12:53:00,52.1,21.0,30.35,ENE,71,3.0,8.0,30,0.00,,,0.00,563,weatherlink.com 1.10,2013-01-14 20:53:00,
2013-01-14 13:08:00,52.7,21.0,30.35,South,175,0.0,5.0,29,0.00,,,0.00,554,weatherlink.com 1.10,2013-01-14 21:08:00,
2013-01-14 13:23:00,53.0,22.0,30.35,SE,138,1.0,5.0,30,0.00,,,0.00,548,weatherlink.com 1.10,2013-01-14 21:23:00,
2013-01-14 13:38:00,53.3,21.0,30.35,SE,131,1.0,7.0,28,0.00,,,0.00,531,weatherlink.com 1.10,2013-01-14 21:38:00,
2013-01-14 13:53:00,54.2,22.0,30.36,SSW,213,1.0,5.0,28,0.00,,,0.00,515,weatherlink.com 1.10,2013-01-14 21:53:00,
2013-01-14 14:08:00,54.4,22.0,30.35,NNW,342,1.0,5.0,28,0.00,,,0.00,487,weatherlink.com 1.10,2013-01-14 22:08:00,
2013-01-14 14:23:00,53.9,21.0,30.36,East,83,1.0,4.0,28,0.00,,,0.00,459,weatherlink.com 1.10,2013-01-14 22:23:00,
2013-01-14 14:38:00,53.9,22.0,30.36,ESE,122,1.0,5.0,29,0.00,,,0.00,429,weatherlink.com 1.10,2013-01-14 22:38:00,
2013-01-14 14:53:00,54.0,21.0,30.36,SSE,148,2.0,6.0,28,0.00,,,0.00,396,weatherlink.com 1.10,2013-01-14 22:53:00,
2013-01-14 15:08:00,53.5,22.0,30.37,SE,129,0.0,4.0,29,0.00,,,0.00,360,weatherlink.com 1.10,2013-01-14 23:08:00,
2013-01-14 15:23:00,53.8,22.0,30.37,South,173,0.0,4.0,29,0.00,,,0.00,322,weatherlink.com 1.10,2013-01-14 23:23:00,
2013-01-14 15:38:00,55.0,24.0,30.37,SSE,164,2.0,3.0,30,0.00,,,0.00,274,weatherlink.com 1.10,2013-01-14 23:38:00,
2013-01-14 15:53:00,53.7,21.0,30.37,SE,129,3.0,5.0,28,0.00,,,0.00,232,weatherlink.com 1.10,2013-01-14 23:53:00,
2013-01-14 16:08:00,53.4,22.0,30.37,SE,127,0.0,4.0,29,0.00,,,0.00,125,weatherlink.com 1.10,2013-01-15 00:08:00,
2013-01-14 16:23:00,53.1,22.0,30.36,NE,48,0.0,3.0,30,0.00,,,0.00,105,weatherlink.com 1.10,2013-01-15 00:23:00,
2013-01-14 16:38:00,52.9,23.0,30.37,ESE,103,0.0,2.0,31,0.00,,,0.00,32,weatherlink.com 1.10,2013-01-15 00:38:00,
2013-01-14 16:53:00,51.3,22.0,30.36,ESE,105,0.0,2.0,32,0.00,,,0.00,23,weatherlink.com 1.10,2013-01-15 00:53:00,
2013-01-14 17:08:00,50.0,22.0,30.37,ESE,108,0.0,1.0,34,0.00,,,0.00,9,weatherlink.com 1.10,2013-01-15 01:08:00,
2013-01-14 17:23:00,48.8,25.0,30.37,ESE,108,0.0,1.0,40,0.00,,,0.00,0,weatherlink.com 1.10,2013-01-15 01:23:00,
2013-01-14 17:38:00,47.4,24.0,30.37,ESE,108,0.0,1.0,40,0.00,,,0.00,0,weatherlink.com 1.10,2013-01-15 01:38:00,
2013-01-14 17:53:00,46.3,24.0,30.36,ESE,110,0.0,1.0,41,0.00,,,0.00,0,weatherlink.com 1.10,2013-01-15 01:53:00,
2013-01-14 18:08:00,45.7,23.0,30.36,SE,128,0.0,2.0,41,0.00,,,0.00,0,weatherlink.com 1.10,2013-01-15 02:08:00,
2013-01-14 18:23:00,45.4,23.0,30.36,ESE,104,0.0,1.0,41,0.00,,,0.00,0,weatherlink.com 1.10,2013-01-15 02:23:00,
2013-01-14 18:38:00,45.0,24.0,30.36,ESE,114,0.0,1.0,43,0.00,,,0.00,0,weatherlink.com 1.10,2013-01-15 02:38:00,
2013-01-14 18:53:00,44.4,24.0,30.36,ESE,114,0.0,1.0,44,0.00,,,0.00,0,weatherlink.com 1.10,2013-01-15 02:53:00,
2013-01-14 19:08:00,44.0,24.0,30.37,ESE,113,0.0,1.0,46,0.00,,,0.00,0,weatherlink.com 1.10,2013-01-15 03:08:00,
2013-01-14 19:23:00,43.4,24.0,30.37,ENE,69,0.0,1.0,46,0.00,,,0.00,0,weatherlink.com 1.10,2013-01-15 03:23:00,
2013-01-14 19:38:00,43.2,24.0,30.38,ENE,69,0.0,1.0,46,0.00,,,0.00,0,weatherlink.com 1.10,2013-01-15 03:38:00,
2013-01-14 19:53:00,42.9,24.0,30.37,ENE,69,0.0,1.0,47,0.00,,,0.00,0,weatherlink.com 1.10,2013-01-15 03:53:00,
2013-01-14 20:08:00,42.3,24.0,30.38,ENE,69,0.0,2.0,49,0.00,,,0.00,0,weatherlink.com 1.10,2013-01-15 04:08:00,
2013-01-14 20:23:00,41.8,25.0,30.38,ENE,69,0.0,0.0,51,0.00,,,0.00,0,weatherlink.com 1.10,2013-01-15 04:23:00,
2013-01-14 20:38:00,41.2,25.0,30.38,ENE,69,0.0,1.0,52,0.00,,,0.00,0,weatherlink.com 1.10,2013-01-15 04:38:00,
2013-01-14 20:53:00,41.3,25.0,30.38,ENE,69,0.0,0.0,52,0.00,,,0.00,0,weatherlink.com 1.10,2013-01-15 04:53:00,
2013-01-14 21:08:00,40.9,26.0,30.37,ENE,69,0.0,0.0,55,0.00,,,0.00,0,weatherlink.com 1.10,2013-01-15 05:08:00,
2013-01-14 21:23:00,40.4,26.0,30.37,ENE,69,0.0,1.0,58,0.00,,,0.00,0,weatherlink.com 1.10,2013-01-15 05:23:00,
2013-01-14 21:38:00,40.1,27.0,30.38,ENE,69,0.0,1.0,59,0.00,,,0.00,0,weatherlink.com 1.10,2013-01-15 05:38:00,
2013-01-14 21:53:00,40.0,27.0,30.38,ENE,69,0.0,0.0,60,0.00,,,0.00,0,weatherlink.com 1.10,2013-01-15 05:53:00,
2013-01-14 22:08:00,39.8,27.0,30.39,ENE,69,0.0,1.0,60,0.00,,,0.00,0,weatherlink.com 1.10,2013-01-15 06:08:00,
2013-01-14 22:23:00,39.9,27.0,30.39,ENE,69,0.0,1.0,61,0.00,,,0.00,0,weatherlink.com 1.10,2013-01-15 06:23:00,
2013-01-14 22:38:00,40.9,26.0,30.39,ENE,59,0.0,1.0,56,0.00,,,0.00,0,weatherlink.com 1.10,2013-01-15 06:38:00,
2013-01-14 22:53:00,41.5,26.0,30.39,NE,56,0.0,1.0,54,0.00,,,0.00,0,weatherlink.com 1.10,2013-01-15 06:53:00,
2013-01-14 23:08:00,41.8,26.0,30.39,ENE,57,0.0,1.0,54,0.00,,,0.00,0,weatherlink.com 1.10,2013-01-15 07:08:00,
2013-01-14 23:23:00,41.7,26.0,30.40,NE,55,0.0,1.0,53,0.00,,,0.00,0,weatherlink.com 1.10,2013-01-15 07:23:00,
2013-01-14 23:38:00,41.9,26.0,30.39,NE,55,0.0,1.0,53,0.00,,,0.00,0,weatherlink.com 1.10,2013-01-15 07:38:00,
2013-01-14 23:53:00,41.5,25.0,30.40,NE,55,0.0,0.0,52,0.00,,,0.00,0,weatherlink.com 1.10,2013-01-15 07:53:00,